User: anonymous   Login
Location: Boiro
(42.6475°N, 8.8834°W)
Time: 17:36:28
(UTC+02:00)
Language:

UKube-1 - Orbit

View from above orbital plane
View from above orbital plane
View from above satellite
View from above satellite

Ground track
Ground track

The orbit data is extracted from the following two-line orbital elements,

1 40074U 14037F   24202.08419252  .00011253  00000-0  10484-2 0  9992
2 40074  98.3420 134.0424 0003125 351.9416   8.1752 14.94444058543694
Epoch (UTC): 20 July 2024 02:01:14
Eccentricity: 0.0003125
inclination: 98.3420°
perigee height: 582 km
apogee height: 586 km
right ascension of ascending node: 134.0424°
argument of perigee: 351.9416°
revolutions per day: 14.94444058
mean anomaly at epoch: 8.1752°
orbit number at epoch: 54369

The dashed part of the orbit path shows where the satellite is in the earth's shadow,  

DLR